Weather in Krasilovo

Russia / Novgorod Oblast     57°41′18″N   33°19′52″E
temp.,
°C
wind,
m/s
gust,
m/s
humid.,
%
clouds,
%
prec.,
mm/h
press.,
hPa
HPBL,
m
7 march, sun
sun700:00−5sw71591100 1.3 10021190
03:00−3sw81692100 3.1 9961198
06:00−2sw71594100 2.9 9911224
09:00−5wnw71465100 5.3 9911661
12:00−4w6124951 0.0 9912230
15:00−5w598859 0.4 991871
18:00−7w41073100 0.9 992917
21:00−9wnw5128588 0.9 992758
8 march, mon
mon800:00−9wnw61381100 0.0 992846
03:00−8nw71291100 0.9 9941053
06:00−10nw51291100 0.3 997685
09:00−9nnw4990100 0.4 1001652
12:00−8nnw4785100 0.1 1005740
15:00−8nnw5783100 0.3 1007870
18:00−11nnw4789100 0.2 1010722
21:00−13nnw3894100 0.3 1013521
9 march, tue
tue900:00−16nnw2698100 0.1 1015234
03:00−18nnw249998 0.1 101697
06:00−20nw239843 0.0 101882
09:00−19nnw249141 0.0 1019190
12:00−13nnw237448 0.0 1020514
15:00−11nnw237024 0.0 1021841
18:00−14nnw12840 0.0 102121
21:00−17e229120 0.0 102342
10 march, wed
wed1000:00−18ese2695100 0.0 1024148
03:00−18ese3692100 0.0 1024177
06:00−20ese259485 0.0 1024105
09:00−18ese368542 0.0 1025203
12:00−12e36720 0.0 1026353
15:00−10ese46669 0.0 1025694
18:00−12ese378066 0.0 1025240
21:00−15ese388883 0.0 1025248
11 march, thu
thu1100:00−16se41089100 0.0 1025286
03:00−16ese4118882 0.0 1024283
06:00−15se5118970 0.0 1022388
09:00−13se5109184 0.2 1021389
12:00−9se5888100 0.3 1018421
15:00−5sse4886100 0.4 1016585
18:00−4sse51193100 0.1 1013696
21:00−5s51490100 0.3 1010784